• Join FlightAware (Why Join?)
  • Login
  • US Flag 
05:08AM EDT


 

Airport Tracker/Info


-or-


 

Live Flight TrackerFlight Track Log ✈ UAL3756 ✈ 03-May-2013 ✈ KBTV - KORD

Flight Track Log - Related Links

Times and Time Zones

All times are in EDT time to prevent confusion due to time zone crossing. See the UAL3756 flight status page for this flight to view local times or setup timezone preferences in your user account.

Time Position Orientation Groundspeed Altitude Reporting Facility
EDT Latitude Longitude Course Direction KTS MPH feet Rate Location/Type
02:53PM 44.4811 -73.2983 255° West 227 261 4,600  Level Boston Center
02:54PM 44.3900 -73.5912 253° West  Level FlightAware Approximate
02:54PM 44.4681 -73.3767 257° West 249 287 6,800  Level Boston Center
02:55PM 44.3614 -73.7373 259° West  Level FlightAware Approximate
02:55PM 44.4439 -73.5044 255° West 277 319 10,100  Level Boston Center
02:56PM 44.3402 -73.8859 259° West  Level FlightAware Approximate
02:56PM 44.4242 -73.6144 256° West 294 338 12,600  Level Boston Center
02:57PM 44.3145 -74.0330 255° West  Level FlightAware Approximate
02:57PM 44.3997 -73.7475 256° West 310 357 15,400  Level Boston Center
02:58PM 44.2866 -74.1793 255° West  Level FlightAware Approximate
02:58PM 44.3775 -73.8750 256° West 322 371 17,600  Level Boston Center
02:59PM 44.3550 -74.0022 256° West 334 384 19,400 1,260 Climbing Boston Center
03:00PM 44.3300 -74.1408 256° West 348 400 20,200 1,200 Climbing Boston Center
03:01PM 44.3028 -74.2881 256° West 379 436 21,800 1,500 Climbing Boston Center
03:02PM 44.2708 -74.4464 254° West 404 465 23,200 1,380 Climbing Boston Center
03:03PM 44.2431 -74.5992 256° West 419 482 24,600 1,380 Climbing Boston Center
03:04PM 44.2128 -74.7631 256° West 431 496 26,000 1,260 Climbing Boston Center
03:05PM 44.1822 -74.9269 255° West 436 502 27,200 1,200 Climbing Boston Center
03:06PM 44.1517 -75.0936 256° West 436 502 28,400 1,020 Climbing Boston Center
03:07PM 44.1183 -75.2569 254° West 441 507 29,300 780 Climbing Boston Center
03:08PM 44.0875 -75.4144 255° West 454 522 30,000 780 Climbing Boston Center
03:09PM 44.0536 -75.5833 254° West 459 528 30,900 780 Climbing Boston Center
03:10PM 44.0197 -75.7575 255° West 459 528 31,600 960 Climbing Boston Center
03:11PM 43.9853 -75.9319 255° West 464 534 32,900 1,140 Climbing Boston Center
03:12PM 43.9550 -76.0975 256° West 469 540 33,900 900 Climbing Boston Center
03:13PM 43.9392 -76.2694 263° West 464 534 34,700 960 Climbing Boston Center
03:14PM 43.9228 -76.4386 262° West 459 528 35,900 420 Climbing Boston Center
03:16PM 43.8833 -76.7667 261° West 450 518 36,000  Climbing Toronto Center
03:17PM 43.8667 -76.9500 263° West 450 518 36,000  Level Toronto Center
03:18PM 43.8333 -77.1167 255° West 450 518 36,000  Level Toronto Center
03:19PM 43.8167 -77.2833 262° West 440 506 36,000  Level Toronto Center
03:20PM 43.8167 -77.4667 270° West 450 518 36,000  Level Toronto Center
03:21PM 43.8000 -77.6167 261° West 450 518 36,000  Level Toronto Center
03:22PM 43.7667 -77.8167 257° West 450 518 36,000  Level Toronto Center
03:23PM 43.7500 -77.9667 261° West 450 518 36,000  Level Toronto Center
03:24PM 43.7333 -78.1333 262° West 450 518 36,000  Level Toronto Center
03:25PM 43.7167 -78.3000 262° West 450 518 36,000  Level Toronto Center
03:26PM 43.7000 -78.4833 263° West 450 518 36,000  Level Toronto Center
03:27PM 43.6833 -78.6333 261° West 450 518 36,000  Level Toronto Center
03:28PM 43.6667 -78.8333 263° West 450 518 36,000  Level Toronto Center
03:29PM 43.6500 -78.9833 261° West 450 518 36,000  Level Toronto Center
03:30PM 43.6333 -79.1667 263° West 450 518 36,000  Level Toronto Center
03:31PM 43.6167 -79.3333 262° West 450 518 36,000  Level Toronto Center
03:32PM 43.6000 -79.5167 263° West 450 518 36,000  Level Toronto Center
03:33PM 43.5833 -79.6833 262° West 450 518 36,000  Level Toronto Center
03:34PM 43.5667 -79.8333 261° West 460 529 36,000  Level Toronto Center
03:35PM 43.5500 -80.0167 263° West 450 518 36,000  Level Toronto Center
03:36PM 43.5333 -80.1833 262° West 450 518 36,000  Level Toronto Center
03:37PM 43.5167 -80.3667 263° West 450 518 36,000  Level Toronto Center
03:38PM 43.5000 -80.5333 262° West 450 518 36,000  Level Toronto Center
03:39PM 43.4833 -80.7167 263° West 450 518 36,000  Level Toronto Center
03:40PM 43.4500 -80.8667 253° West 450 518 36,000  Level Toronto Center
03:41PM 43.4333 -81.0500 263° West 450 518 36,000  Level Toronto Center
03:42PM 43.4000 -81.2167 255° West 450 518 36,000  Level Toronto Center
03:43PM 43.3833 -81.4000 263° West 450 518 36,000  Level Toronto Center
03:44PM 43.3500 -81.5667 255° West 450 518 36,000  Level Toronto Center
03:45PM 43.3333 -81.7167 261° West 450 518 36,000  Level Toronto Center
03:46PM 43.3000 -81.8833 255° West 450 518 36,000  Level Toronto Center
03:47PM 43.2667 -82.0667 256° West 450 518 36,000  Level Toronto Center
03:48PM 43.2333 -82.2167 253° West 450 518 36,000  Level Toronto Center
03:49PM 43.2000 -82.4000 256° West 450 518 36,000 -240 Level Toronto Center
03:50PM 43.1833 -82.5667 262° West 440 506 35,600 -1,020 Descending Toronto Center
03:51PM 43.1167 -82.6667 228° Southwest 400 460 34,000 -1,560 Descending Toronto Center
03:52PM 43.0572 -82.8278 243° Southwest 410 472 32,400 -960 Descending Cleveland Center
03:53PM 42.9981 -82.9733 241° Southwest 423 487 32,000 -240 Descending Cleveland Center
03:54PM 42.9864 -83.1375 265° West 423 487 32,000  Level Cleveland Center
03:55PM 42.9803 -83.3106 267° West 437 503 32,000  Level Cleveland Center
03:56PM 42.9764 -83.4719 268° West 442 509 32,000  Level Cleveland Center
03:57PM 42.9722 -83.6281 268° West 436 502 32,000  Level Cleveland Center
03:58PM 42.9617 -83.7864 265° West 423 487 32,000  Level Cleveland Center
03:59PM 42.9469 -83.9417 263° West 423 487 32,000  Level Cleveland Center
04:00PM 42.9339 -84.1025 264° West 423 487 32,000  Level Cleveland Center
04:01PM 42.9161 -84.2661 262° West 429 494 32,000  Level Cleveland Center
04:02PM 42.9019 -84.4047 262° West 452 520 32,000  Level Chicago Center
04:03PM 42.8819 -84.6139 263° West 465 535 32,000  Level Chicago Center
04:04PM 42.8647 -84.7797 262° West 447 514 32,000  Level Chicago Center
04:05PM 42.8467 -84.9458 262° West 444 511 32,000  Level Chicago Center
04:06PM 42.8292 -85.1119 262° West 444 511 32,000 -540 Level Chicago Center
04:07PM 42.8114 -85.2817 262° West 449 517 30,900 -1,260 Descending Chicago Center
04:08PM 42.7908 -85.4611 261° West 474 545 29,400 -1,560 Descending Chicago Center
04:09PM 42.7572 -85.6636 257° West 458 527 27,700 -1,200 Descending Chicago Center
04:10PM 42.7269 -85.8308 256° West 454 522 27,000 -360 Descending Chicago Center
04:11PM 42.6961 -85.9978 256° West 451 519 27,000 -840 Level Chicago Center
04:12PM 42.6669 -86.1589 256° West 442 509 25,300 -2,100 Descending Chicago Center
04:14PM 42.6369 -86.3128 255° West 424 488 22,700 -2,520 Descending Chicago Center
04:15PM 42.6092 -86.4681 256° West 423 487 20,200 -1,320 Descending Chicago Center
04:16PM 42.5803 -86.6181 255° West 410 472 20,000 -540 Descending Chicago Center
04:17PM 42.5506 -86.7731 255° West 411 473 19,100 -1,440 Descending Chicago Center
04:18PM 42.5039 -86.9386 249° West 397 457 17,100 -2,160 Descending Chicago Center
04:19PM 42.4669 -87.0672 249° West 380 437 14,600 -2,460 Descending Chicago Center
04:20PM 42.4311 -87.1958 249° West 369 425 12,100 -2,220 Descending Chicago Center
04:21PM 42.3964 -87.3231 250° West 364 419 10,100 -1,020 Descending Chicago Center
04:22PM 42.3628 -87.4456 250° West 350 403 10,000 -60 Descending Chicago Center
04:23PM 42.3022 -87.5719 237° Southwest 343 395 10,000 -420 Level Chicago Center
04:24PM 42.2425 -87.6358 218° Southwest 287 330 9,200 -1,320 Descending Chicago Center
04:25PM 42.1842 -87.6953 217° Southwest 267 307 7,300 -1,080 Descending Chicago Center
04:26PM 42.1283 -87.7556 219° Southwest 262 302 7,000 -180 Descending Chicago Center
04:26PM 42.1000 -87.8000 229° Southwest 267 307 7,100  Climbing Chicago TRACON
04:27PM 42.1000 -87.9167 270° West 295 339 7,000 -60 Descending Chicago TRACON
04:29PM 42.1000 -88.0167 270° West 254 292 7,000 -240 Level Chicago TRACON
04:29PM 42.1000 -88.1000 270° West 240 276 6,600 -600 Descending Chicago TRACON
04:30PM 42.0911 -88.1508 257° West 251 289 6,100 -360 Descending Chicago Center
04:31PM 42.0906 -88.2372 270° West 239 275 6,000 -540 Descending Chicago Center
04:32PM 42.0911 -88.3269 271° West 240 276 5,100 -1,020 Descending Chicago Center
04:33PM 42.0864 -88.4303 267° West 238 274 4,000 -540 Descending Chicago Center
04:34PM 42.0458 -88.4644 212° Southwest 222 255 4,000  Level Chicago Center
04:35PM 41.9978 -88.4367 157° South 195 224 4,000  Level Chicago Center
04:36PM 41.9842 -88.3783 107° East 182 209 4,100  Climbing Chicago Center
04:37PM 41.9792 -88.3128 96° East 179 206 4,000 -60 Descending Chicago Center
04:38PM 41.9856 -88.2331 84° East 177 204 4,000  Level Chicago Center
04:39PM 41.9844 -88.1631 91° East 186 214 4,000 -300 Level Chicago Center
04:40PM 41.9836 -88.1000 91° East 175 201 3,500 -900 Descending Chicago Center
04:41PM 41.9833 -88.0167 90° East 176 203 2,200 -1,260 Descending Chicago TRACON